TimeEST,TemperatureF,Dew PointF,Humidity,Sea Level PressureIn,VisibilityMPH,Wind Direction,Wind SpeedMPH,Gust SpeedMPH,PrecipitationIn,Events,Conditions,WindDirDegrees,DateUTC
12:14 AM,36.3,25.9,66,30.45,10.0,Calm,Calm,-,N/A,,Clear,0,2013-01-10 05:14:00
12:35 AM,35.1,26.1,70,30.47,10.0,SSW,6.9,-,N/A,,Clear,210,2013-01-10 05:35:00
12:55 AM,35.8,26.1,68,30.49,10.0,SSW,6.9,-,N/A,,Clear,210,2013-01-10 05:55:00
1:14 AM,35.6,26.1,68,30.50,10.0,SW,3.5,-,N/A,,Clear,230,2013-01-10 06:14:00
1:35 AM,35.2,26.1,69,30.51,10.0,SW,5.8,-,N/A,,Clear,220,2013-01-10 06:35:00
1:55 AM,34.9,26.2,71,30.52,10.0,SW,4.6,-,N/A,,Clear,230,2013-01-10 06:55:00
2:14 AM,34.9,26.4,71,30.54,10.0,SW,4.6,-,N/A,,Clear,230,2013-01-10 07:14:00
2:35 AM,34.7,26.6,72,30.54,10.0,WSW,4.6,-,N/A,,Clear,250,2013-01-10 07:35:00
2:54 AM,34.2,26.8,74,30.55,10.0,WSW,4.6,-,N/A,,Clear,250,2013-01-10 07:54:00
3:14 AM,33.6,27.1,77,30.55,10.0,West,5.8,-,N/A,,Clear,260,2013-01-10 08:14:00
3:35 AM,33.3,27.5,79,30.55,10.0,West,4.6,-,N/A,,Clear,280,2013-01-10 08:35:00
3:54 AM,33.4,27.5,79,30.54,10.0,WNW,5.8,-,N/A,,Clear,290,2013-01-10 08:54:00
4:15 AM,32.9,27.5,81,30.54,10.0,West,4.6,-,N/A,,Clear,280,2013-01-10 09:15:00
4:35 AM,32.9,27.7,81,30.52,10.0,WNW,4.6,-,N/A,,Clear,300,2013-01-10 09:35:00
4:54 AM,33.3,27.9,81,30.53,10.0,WNW,5.8,-,N/A,,Clear,290,2013-01-10 09:54:00
5:15 AM,33.3,27.9,81,30.53,10.0,West,5.8,-,N/A,,Clear,280,2013-01-10 10:15:00
5:35 AM,32.9,27.9,82,30.54,10.0,West,4.6,-,N/A,,Clear,270,2013-01-10 10:35:00
5:54 AM,32.9,27.9,82,30.54,10.0,West,4.6,-,N/A,,Clear,280,2013-01-10 10:54:00
6:15 AM,33.4,27.9,80,30.54,10.0,NW,3.5,-,N/A,,Clear,310,2013-01-10 11:15:00
6:35 AM,33.3,27.9,81,30.55,10.0,Calm,Calm,-,N/A,,Clear,0,2013-01-10 11:35:00
7:15 AM,31.5,27.0,83,30.57,10.0,Calm,Calm,-,N/A,,Clear,0,2013-01-10 12:15:00
7:34 AM,31.3,27.0,84,30.57,10.0,Calm,Calm,-,N/A,,Clear,0,2013-01-10 12:34:00
7:54 AM,30.0,26.4,86,30.57,10.0,Calm,Calm,-,N/A,,Clear,0,2013-01-10 12:54:00
8:34 AM,31.6,28.0,87,30.57,10.0,Calm,Calm,-,N/A,,Clear,0,2013-01-10 13:34:00
8:55 AM,32.2,28.2,85,30.58,10.0,Calm,Calm,-,N/A,,Clear,0,2013-01-10 13:55:00
9:15 AM,32.7,28.4,84,30.59,10.0,Calm,Calm,-,N/A,,Clear,0,2013-01-10 14:15:00
9:34 AM,33.1,28.9,85,30.59,10.0,Calm,Calm,-,N/A,,Clear,0,2013-01-10 14:34:00
9:55 AM,34.0,29.1,82,30.60,10.0,Calm,Calm,-,N/A,,Clear,0,2013-01-10 14:55:00
10:15 AM,34.9,28.9,79,30.60,10.0,Calm,Calm,-,N/A,,Clear,0,2013-01-10 15:15:00
10:34 AM,35.6,29.3,78,30.59,10.0,East,3.5,-,N/A,,Clear,100,2013-01-10 15:34:00
10:55 AM,36.3,29.1,75,30.59,10.0,East,4.6,-,N/A,,Clear,80,2013-01-10 15:55:00
11:15 AM,37.4,29.3,73,30.58,10.0,Calm,Calm,-,N/A,,Clear,0,2013-01-10 16:15:00
11:34 AM,39.2,29.3,68,30.57,10.0,East,4.6,-,N/A,,Clear,100,2013-01-10 16:34:00
11:55 AM,40.5,29.1,64,30.55,10.0,East,6.9,-,N/A,,Clear,100,2013-01-10 16:55:00
12:14 PM,41.0,29.1,63,30.54,10.0,East,5.8,-,N/A,,Clear,100,2013-01-10 17:14:00
12:34 PM,41.4,29.3,62,30.53,10.0,East,4.6,-,N/A,,Clear,90,2013-01-10 17:34:00
12:55 PM,42.8,29.5,59,30.52,10.0,SE,4.6,-,N/A,,Clear,140,2013-01-10 17:55:00
1:14 PM,43.3,28.6,56,30.52,10.0,SE,4.6,-,N/A,,Clear,130,2013-01-10 18:14:00
1:35 PM,44.6,28.4,53,30.50,10.0,ESE,6.9,-,N/A,,Clear,110,2013-01-10 18:35:00
1:55 PM,44.2,28.0,53,30.50,10.0,SE,6.9,-,N/A,,Clear,130,2013-01-10 18:55:00
2:14 PM,44.1,27.7,53,30.48,10.0,SE,6.9,-,N/A,,Clear,140,2013-01-10 19:14:00
2:35 PM,43.9,27.3,52,30.47,10.0,SE,6.9,-,N/A,,Clear,140,2013-01-10 19:35:00
2:55 PM,43.5,28.4,55,30.48,10.0,SE,8.1,-,N/A,,Clear,130,2013-01-10 19:55:00
3:14 PM,42.8,28.6,57,30.47,10.0,SE,6.9,-,N/A,,Clear,130,2013-01-10 20:14:00
3:35 PM,42.8,29.3,59,30.46,10.0,ESE,5.8,-,N/A,,Clear,120,2013-01-10 20:35:00
3:54 PM,41.9,29.1,61,30.46,10.0,ESE,5.8,-,N/A,,Clear,120,2013-01-10 20:54:00
4:15 PM,41.5,29.1,61,30.46,10.0,SE,5.8,-,N/A,,Clear,130,2013-01-10 21:15:00
4:35 PM,41.0,29.7,64,30.45,10.0,SE,6.9,-,N/A,,Clear,140,2013-01-10 21:35:00
4:54 PM,40.6,30.2,66,30.43,10.0,ESE,8.1,-,N/A,,Clear,120,2013-01-10 21:54:00
5:15 PM,40.1,30.7,69,30.43,10.0,ESE,6.9,-,N/A,,Clear,110,2013-01-10 22:15:00
5:34 PM,39.7,31.1,71,30.43,10.0,ESE,5.8,-,N/A,,Clear,110,2013-01-10 22:34:00
5:54 PM,39.4,31.5,73,30.42,10.0,ESE,4.6,-,N/A,,Clear,120,2013-01-10 22:54:00
6:15 PM,39.2,31.6,74,30.42,10.0,East,6.9,-,N/A,,Clear,100,2013-01-10 23:15:00
6:34 PM,39.0,32.0,76,30.41,10.0,ESE,6.9,-,N/A,,Clear,110,2013-01-10 23:34:00
6:54 PM,39.2,32.5,77,30.40,10.0,East,5.8,-,N/A,,Clear,90,2013-01-10 23:54:00
7:15 PM,39.2,32.9,78,30.39,10.0,East,10.4,-,N/A,,Clear,100,2013-01-11 00:15:00
7:34 PM,39.2,33.1,79,30.38,10.0,ESE,4.6,-,N/A,,Clear,110,2013-01-11 00:34:00
7:55 PM,39.0,32.9,79,30.39,10.0,ESE,5.8,-,N/A,,Clear,110,2013-01-11 00:55:00
8:15 PM,38.5,32.9,80,30.38,10.0,ESE,9.2,-,N/A,,Clear,110,2013-01-11 01:15:00
8:34 PM,38.5,33.3,81,30.37,10.0,East,6.9,-,N/A,,Clear,100,2013-01-11 01:34:00
8:55 PM,38.5,33.3,81,30.36,10.0,East,8.1,-,N/A,,Scattered Clouds,100,2013-01-11 01:55:00
9:14 PM,38.5,33.3,81,30.35,10.0,East,6.9,-,N/A,,Mostly Cloudy,100,2013-01-11 02:14:00
9:54 PM,38.3,34.3,86,30.32,5.0,East,6.9,-,N/A,Rain,Light Rain,100,2013-01-11 02:54:00
10:15 PM,38.3,34.7,87,30.30,7.0,East,5.8,-,N/A,Rain,Light Rain,80,2013-01-11 03:15:00
10:35 PM,38.3,34.9,87,30.28,10.0,East,8.1,-,N/A,Rain,Light Rain,80,2013-01-11 03:35:00
10:54 PM,38.5,34.9,87,30.27,7.0,East,5.8,-,N/A,Rain,Light Rain,90,2013-01-11 03:54:00
11:15 PM,38.7,34.9,86,30.25,10.0,East,5.8,-,N/A,,Overcast,90,2013-01-11 04:15:00
11:35 PM,38.8,34.7,85,30.24,10.0,East,5.8,-,N/A,,Overcast,90,2013-01-11 04:35:00
11:54 PM,39.2,34.7,84,30.23,10.0,East,8.1,-,N/A,,Overcast,100,2013-01-11 04:54:00